Regional Weather Roundup
Issued by NWS

Home | Current Version | Previous Version | Graphics & Text | Print | Product List | Glossary On
Versions: 1 2 3 4 5 6 7 8 9 10 11 12 13 14 15 16 17 18 19 20 21 22 23 24 25 26 27 28 29 30 31 32 33 34 35 36 37 38 39 40 41 42 43 44 45 46 47 48 49 50
532
ASUS43 KOAX 271110
RWRNE

WEATHER ROUNDUP FOR NEBRASKA
NATIONAL WEATHER SERVICE OMAHA NE
600 AM CDT FRI MAY 27 2016

NOTES: SATELLITE DATA IS BEING USED TO AUGMENT CLOUD COVER ABOVE
       12000 FEET.
       "FAIR" INDICATES FEW OR NO CLOUDS BELOW 12,000 FEET WITH NO
       SIGNIFICANT WEATHER AND/OR OBSTRUCTIONS TO VISIBILITY.

  * THESE STATIONS DO NOT REPORT WEATHER SUCH AS RAIN...SNOW OR FOG.

NEZ001>004-019>022-054>056-271200-
NEBRASKA PANHANDLE

CITY           SKY/WX    TMP DP  RH WIND       PRES   REMARKS
SCOTTSBLUFF    CLOUDY    53  46  77 N13       29.83R
ALLIANCE       LGT RAIN  51  49  92 N6        29.81S
CHADRON        CLOUDY    46  44  93 W6        29.84S
KIMBALL        CLOUDY    48  44  86 NW12      29.82S
SIDNEY         LGT RAIN  49  47  93 N14       29.79F FOG
$$

NEZ057>060-069>072-079>082-271200-
SOUTHWEST NEBRASKA

CITY           SKY/WX    TMP DP  RH WIND       PRES   REMARKS
NORTH PLATTE   CLOUDY    56  54  93 CALM      29.74S
IMPERIAL       CLOUDY    53  50  89 N3        29.73S
LEXINGTON      MOCLDY    56  54  92 CALM      29.71F
MCCOOK         CLOUDY    55  53  93 NE5       29.70F
OGALLALA       CLOUDY    55  52  89 NE3       29.74S
$$

NEZ005>010-023>029-035>040-094-271200-
NORTH CENTRAL NEBRASKA

CITY           SKY/WX    TMP DP  RH WIND       PRES   REMARKS
VALENTINE      CLOUDY    56  50  80 N8        29.72F
AINSWORTH      DRIZZLE   55  53  92 NW3       29.73S
BROKEN BOW     MOCLDY    55  53  93 CALM      29.74S
O`NEILL        LGT RAIN  59  57  94 NE10      29.67F
ORD            CLOUDY    59  55  87 W8        29.72R
THEDFORD       CLOUDY    54  53  94 NW3       29.75F
$$

NEZ041-046>049-061>064-073>077-083>087-271200-
SOUTH CENTRAL NEBRASKA

CITY           SKY/WX    TMP DP  RH WIND       PRES   REMARKS
GRAND ISLAND   CLOUDY    59  56  89 CALM      29.71F
AURORA         CLOUDY    58  57  95 CALM      29.70S
HASTINGS       PTCLDY    54  53  97 N3        29.68S
HEBRON         MOCLDY    58  56  92 CALM      29.66R
HOLDREGE       MOCLDY    54  52  95 CALM      29.70S
KEARNEY *      CLEAR     55  54  94 W7        29.70S
YORK           MOCLDY    57  55  94 NW5       29.70R
$$

NEZ011>018-030>034-042>045-271200-
NORTHEAST NEBRASKA

CITY           SKY/WX    TMP DP  RH WIND       PRES   REMARKS
NORFOLK        CLOUDY    59  56  89 SE9       29.71R
ALBION         CLOUDY    56  54  90 CALM      29.71R
BLAIR          CLOUDY    61  59  93 E3        29.72R
FREMONT        CLOUDY    61  59  94 E5        29.73R
TEKAMAH        CLOUDY    62  58  86 NE7       29.71F
WAYNE          CLOUDY    61  58  90 E10       29.72S
$$

NEZ050>053-065>068-078-088>093-271200-
SOUTHEAST NEBRASKA

CITY           SKY/WX    TMP DP  RH WIND       PRES   REMARKS
LINCOLN        CLOUDY    60  58  92 N7        29.68F
OMAHA EPPLEY   CLOUDY    63  58  83 S3        29.72R
BEATRICE       CLOUDY    57  56  95 NW5       29.66R
FALLS CITY     LGT RAIN  61  60  97 E14       29.63F
NEBRASKA CITY  CLOUDY    62  59  92 SE9G16    29.63R
PLATTSMOUTH    CLOUDY    62  61  96 N3        29.68R
$$

NEZ044-045-051>053-067-271200-
OMAHA AREA

CITY           SKY/WX    TMP DP  RH WIND       PRES   REMARKS
OMAHA EPPLEY   CLOUDY    63  58  83 S3        29.72R
BLAIR          CLOUDY    61  59  93 E3        29.72R
FREMONT        CLOUDY    61  59  94 E5        29.73R
MILLARD        CLOUDY    62  59  92 CALM      29.70R
OFFUTT AFB     CLOUDY    61  60  97 N5        29.69R
PLATTSMOUTH    CLOUDY    62  61  96 N3        29.68R
WAHOO          CLOUDY    61  59  93 CALM      29.72R
$$




USA.gov is the U.S. government's official web portal to all federal, state and local government web resources and services.